Temp
75 77 74 70 69 70 69 70 70 70 70 70 70 70 70 71 71 71 71 71 71 70 70 70 70 69 68 67 66 66 76 76
75 76 76 75 75 68 69 69 69 69 70 69 69 69 70 70 69 70 70 70 70 70 70 69 69 67 67 66 66 67 76 77
73 73 73 73 74 73 70 69 69 69 70 69 69 75 74 74 70 69 69 69 69 69 69 68 67 67 66 66 66 77 76 78
70 70 70 71 73 73 73 74 76 75 75 73 75 73 74 73 70 67 67 67 68 67 67 67 69 76 76 71 76 74 75 75
70 69 70 71 73 73 74 74 73 73 72 72 73 73 74 75 75 75 74 69 74 73 73 75 72 73 73 72 73 73 74 74
70 71 70 70 72 72 72 73 72 72 73 72 72 73 73 72 75 73 71 72 71 71 73 70 70 70 70 70 70 72 73 74
71 70 69 69 69 70 70 69 70 70 71 70 72 73 72 72 71 72 71 72 71 71 71 71 70 70 70 70 69 69 70 73
70 69 69 70 69 68 66 66 65 64 64 63 66 67 69 70 69 69 69 69 70 70 69 69 69 69 68 68 67 68 69 69
68 66 68 68 66 67 65 63 61 60 62 62 62 64 66 66 68 67 66 68 68 69 68 68 68 68 67 68 68 66 67 66
69 67 67 66 65 63 61 59 60 59 60 61 65 67 66 66 67 66 67 67 67 67 66 67 66 65 65 66 66 66 65 65
67 67 65 63 60 57 57 60 62 61 61 62 63 62 63 65 65 63 63 64 64 64 64 63 62 62 64 65 65 66 65 66
64 65 63 61 59 60 61 64 63 64 62 60 63 65 63 64 63 62 64 63 62 63 61 62 60 59 62 62 63 64 65 63
64 64 63 64 63 63 63 63 62 59 65 63 62 63 63 62 63 63 62 62 60 61 62 59 60 58 59 60 61 61 60 61
63 64 65 67 68 67 66 64 63 63 62 60 61 60 61 62 61 62 61 61 59 58 58 58 58 56 54 54 53 57 60 59
64 65 66 66 65 65 64 63 63 62 61 61 61 61 63 62 61 61 60 59 58 56 55 54 54 55 53 52 48 47 49 56
64 64 65 63 63 64 63 64 62 59 60 61 62 60 60 60 59 58 57 57 54 54 54 53 52 50 53 54 51 49 44 43
61 61 61 61 61 61 61 59 59 60 60 58 58 58 58 58 57 55 54 55 52 52 51 51 52 51 50 49 48 48 48 43
59 60 59 59 60 59 59 58 58 58 57 57 57 58 58 57 55 54 53 52 52 52 51 49 50 50 51 49 47 44 43 42
58 59 57 58 57 57 56 56 56 55 55 55 54 56 57 56 53 52 52 51 50 52 51 50 50 50 48 48 48 46 46 45
57 58 56 56 56 56 56 56 56 56 54 54 54 53 54 53 52 51 50 51 51 49 50 49 49 48 47 46 47 47 46 44
MSLP
1020.19 1020.53 1020.87 1021.20 1021.48 1021.73 1021.94 1022.18 1022.24 1022.53 1022.76 1022.87 1022.83 1022.94 1023.11 1023.43 1023.56 1023.53 1023.49 1023.46 1023.41 1023.07 1023.01 1022.88 1022.69 1022.74 1022.76 1022.55 1022.39 1022.23 1021.68 1021.61
1020.36 1020.85 1021.14 1021.32 1021.69 1022.17 1022.31 1022.45 1022.63 1022.81 1022.98 1023.03 1023.02 1023.02 1023.08 1023.34 1023.55 1023.59 1023.56 1023.39 1023.37 1023.13 1023.04 1022.91 1022.81 1022.71 1022.68 1022.55 1022.33 1022.16 1021.77 1021.58
1020.56 1021.02 1021.38 1021.58 1021.88 1022.26 1022.64 1022.78 1022.89 1023.20 1022.98 1023.09 1023.28 1023.15 1023.13 1023.22 1023.65 1023.52 1023.51 1023.43 1023.40 1023.15 1023.13 1023.22 1022.92 1022.64 1022.64 1022.54 1022.30 1021.79 1021.70 1021.47
1020.92 1021.28 1021.62 1022.06 1022.35 1022.57 1023.02 1022.97 1023.14 1023.25 1023.21 1023.22 1023.28 1023.43 1023.38 1023.47 1023.70 1023.69 1023.50 1023.45 1023.32 1023.28 1023.24 1023.17 1022.93 1022.58 1022.35 1022.32 1022.06 1021.95 1021.65 1021.50
1021.18 1021.63 1021.91 1022.30 1022.92 1023.24 1023.44 1023.54 1023.68 1023.68 1023.67 1023.57 1023.67 1023.66 1023.75 1023.42 1023.45 1023.51 1023.49 1023.64 1023.44 1023.27 1023.10 1022.98 1023.00 1022.81 1022.59 1022.47 1022.26 1021.89 1021.70 1021.54
1021.39 1021.77 1022.10 1022.77 1023.24 1023.52 1023.95 1024.02 1024.06 1024.23 1023.92 1024.03 1023.95 1023.75 1023.72 1023.62 1023.48 1023.57 1023.70 1023.78 1023.68 1023.41 1023.30 1023.29 1023.16 1023.02 1022.88 1022.62 1022.38 1022.12 1021.95 1021.69
1021.49 1021.90 1022.60 1022.87 1023.27 1023.65 1024.06 1024.36 1024.69 1024.85 1024.50 1024.52 1024.47 1024.09 1023.80 1023.78 1023.83 1023.82 1023.83 1023.82 1023.72 1023.46 1023.42 1023.28 1023.15 1023.02 1022.91 1022.71 1022.52 1022.39 1022.17 1021.86
1021.66 1022.14 1022.77 1023.00 1023.25 1023.60 1023.94 1024.28 1024.69 1024.84 1024.96 1024.80 1024.99 1024.97 1024.21 1023.94 1024.13 1024.20 1024.14 1024.06 1023.85 1023.78 1023.65 1023.50 1023.38 1023.20 1023.05 1023.02 1022.88 1022.70 1022.44 1022.16
1021.66 1022.66 1022.90 1023.16 1023.30 1022.87 1023.53 1023.55 1024.12 1025.18 1025.30 1025.54 1024.99 1025.14 1024.70 1024.35 1024.36 1024.17 1024.27 1024.27 1024.12 1023.82 1023.77 1023.77 1023.53 1023.39 1023.29 1023.08 1022.91 1022.83 1022.62 1022.46
1021.80 1022.47 1022.90 1023.14 1023.60 1024.00 1024.06 1024.27 1025.10 1025.71 1025.60 1025.47 1025.11 1024.73 1024.48 1024.53 1024.26 1024.27 1024.57 1024.55 1024.19 1023.95 1023.97 1023.84 1023.70 1023.60 1023.40 1023.10 1022.95 1022.81 1022.72 1022.58
1021.74 1022.42 1022.93 1023.25 1023.68 1023.63 1023.87 1024.72 1025.03 1025.56 1025.43 1025.18 1024.98 1024.98 1024.87 1024.71 1024.68 1024.94 1024.95 1024.66 1024.53 1024.44 1024.45 1024.32 1024.02 1023.94 1023.59 1023.09 1022.85 1022.57 1022.64 1022.58
1022.07 1022.64 1023.19 1023.31 1023.60 1024.04 1024.34 1024.52 1025.30 1025.25 1025.27 1025.28 1025.16 1025.05 1025.10 1024.98 1025.08 1025.26 1024.97 1024.80 1024.72 1024.63 1024.59 1024.45 1024.40 1024.26 1023.66 1023.20 1022.93 1022.62 1022.66 1022.74
1022.37 1022.70 1023.02 1023.00 1023.48 1023.84 1024.18 1024.50 1025.02 1025.40 1024.97 1025.14 1025.12 1025.28 1025.34 1025.37 1025.43 1025.34 1025.14 1024.85 1024.84 1024.66 1024.41 1024.31 1024.07 1024.23 1023.49 1023.08 1022.76 1022.79 1022.71 1022.78
1022.51 1022.71 1022.94 1023.07 1023.25 1023.56 1023.88 1024.34 1024.79 1025.05 1025.34 1025.68 1025.78 1025.82 1025.79 1025.65 1025.48 1025.31 1025.27 1025.14 1025.27 1025.06 1024.82 1024.46 1024.41 1024.56 1024.04 1023.35 1022.44 1022.43 1022.46 1022.81
1022.68 1023.06 1023.34 1023.52 1023.52 1023.88 1024.28 1024.66 1025.03 1025.29 1025.72 1025.84 1025.83 1025.59 1025.37 1025.39 1025.51 1025.44 1025.42 1025.32 1025.26 1025.27 1025.26 1025.01 1024.60 1024.70 1024.82 1024.42 1023.51 1022.89 1023.30 1022.86
1023.31 1023.52 1023.93 1024.11 1024.24 1024.31 1024.41 1024.57 1024.91 1025.64 1025.89 1025.87 1025.77 1025.95 1025.76 1025.65 1025.62 1025.59 1025.56 1025.57 1025.59 1025.62 1025.56 1025.38 1025.18 1025.08 1025.11 1025.21 1025.14 1024.82 1024.11 1023.06
1023.78 1023.81 1024.28 1024.56 1024.67 1024.74 1024.79 1025.11 1025.61 1025.93 1026.06 1026.17 1026.12 1026.02 1025.99 1025.78 1025.68 1025.65 1025.66 1025.63 1025.73 1025.59 1025.64 1025.70 1025.68 1025.47 1025.34 1025.33 1025.27 1025.07 1024.82 1024.54
1023.69 1023.90 1024.62 1024.77 1025.01 1025.33 1025.50 1025.75 1026.10 1026.23 1026.46 1026.33 1026.03 1025.69 1025.36 1025.38 1025.41 1025.48 1025.56 1025.69 1025.77 1025.83 1025.78 1025.61 1025.45 1025.62 1025.69 1025.54 1025.48 1025.29 1024.97 1024.81
1024.09 1024.44 1025.04 1025.47 1025.75 1026.09 1026.27 1026.48 1026.64 1026.68 1026.66 1026.42 1026.07 1025.57 1025.21 1025.01 1025.25 1025.37 1025.50 1025.70 1025.81 1025.76 1025.59 1025.62 1025.44 1025.46 1025.57 1025.40 1025.47 1025.38 1025.38 1025.01
1024.47 1024.80 1025.31 1025.76 1026.01 1026.24 1026.53 1026.63 1026.76 1026.80 1026.80 1026.60 1026.17 1025.74 1025.31 1025.09 1025.11 1025.39 1025.59 1025.71 1025.76 1025.70 1025.67 1025.52 1025.46 1025.54 1025.52 1025.58 1025.36 1025.22 1025.31 1025.02
Wind_Speed
10 11 10 9 9 10 10 9 8 8 7 7 7 6 6 5 6 5 5 6 6 6 6 6 7 8 8 8 8 6 6 5
10 8 8 8 8 6 8 7 7 7 6 6 6 5 5 4 3 4 5 6 7 8 8 8 9 9 10 9 8 4 7 6
6 7 7 8 8 7 6 6 6 5 5 5 4 3 3 2 2 3 5 5 6 6 8 9 9 6 8 10 9 4 7 6
5 6 7 6 4 5 4 4 2 2 3 3 2 1 0 2 3 5 4 5 5 7 7 7 6 4 4 6 5 7 6 7
8 7 7 5 2 2 2 1 1 1 1 1 2 1 2 1 1 2 3 6 4 4 4 3 5 4 5 5 6 6 5 5
9 7 6 5 3 3 3 3 4 3 4 4 3 2 2 1 1 3 3 3 4 4 3 4 5 5 5 5 6 6 5 4
7 6 6 6 6 4 5 6 6 8 7 7 5 3 1 2 3 3 3 3 4 5 4 4 5 5 5 6 6 7 8 5
8 8 8 9 9 9 6 5 4 4 4 5 6 7 3 3 3 3 4 4 4 3 4 4 4 5 5 6 6 6 7 7
10 11 11 9 9 10 5 5 8 5 4 5 4 3 3 4 2 3 4 4 4 3 4 3 3 4 5 5 5 5 6 5
12 11 11 12 9 6 7 5 3 2 1 1 3 4 4 2 4 4 3 3 4 4 4 3 4 5 6 5 5 5 4 3
15 13 11 10 9 5 8 7 5 3 2 2 6 5 5 4 4 4 3 4 5 4 4 4 4 6 7 6 7 6 2 2
13 9 9 10 7 7 6 6 4 3 4 4 5 6 6 5 5 4 4 4 4 3 4 4 4 5 7 6 7 4 1 2
12 12 10 9 8 7 4 4 4 4 5 7 7 7 7 6 4 4 3 4 3 2 1 4 4 6 5 7 7 3 2 2
10 10 11 9 7 3 2 3 4 5 5 6 6 6 5 4 3 2 1 0 0 3 4 3 3 4 5 7 6 4 4 4
11 9 7 5 4 4 4 5 4 3 3 3 3 3 2 1 1 2 1 1 1 3 4 5 6 4 5 4 5 5 8 6
9 8 7 6 5 3 4 3 3 3 2 1 2 5 6 4 2 1 1 2 3 3 4 5 5 5 4 3 5 7 7 9
8 11 9 8 8 7 6 7 4 3 1 3 5 5 5 5 3 1 2 3 4 4 3 4 3 3 3 4 5 5 6 7
11 14 13 12 12 11 10 7 5 5 6 6 6 7 7 5 4 3 4 3 3 2 2 3 3 1 2 2 4 5 6 6
13 14 14 12 12 11 10 8 6 6 7 6 10 8 9 8 5 5 4 4 2 1 2 3 3 2 3 3 4 5 5 6
13 13 13 11 11 10 9 9 5 4 6 7 7 8 9 9 5 6 5 1 2 2 5 4 3 4 6 5 5 6 5 5
Wind_Direction
154 159 154 131 133 146 152 152 141 141 139 125 112 111 100 92 70 61 48 36 33 48 44 29 20 14 13 11 12 28 22 15
160 158 156 153 159 147 159 157 147 147 144 129 125 122 117 98 74 39 26 20 5 6 4 4 4 5 356 357 1 332 6 357
148 160 170 169 170 166 167 157 154 171 161 143 131 120 108 100 11 348 352 347 342 349 343 336 341 332 341 341 330 346 340 341
160 174 173 171 171 164 174 159 172 194 174 165 162 146 104 335 326 340 321 329 331 340 334 317 307 330 334 329 340 336 327 329
192 184 175 162 151 108 70 20 316 318 293 280 300 312 304 306 293 322 354 7 359 357 357 344 341 338 342 345 345 347 348 338
190 171 141 122 80 66 40 7 351 329 346 335 314 297 292 333 8 32 36 15 353 10 1 346 351 7 7 14 29 21 8 354
171 131 120 111 88 86 62 39 15 350 343 344 325 290 323 2 34 47 33 16 7 10 5 7 12 24 34 41 39 25 13 8
123 118 117 106 97 92 79 53 15 354 342 4 353 327 354 65 60 36 25 10 16 6 19 21 24 16 27 22 22 16 10 6
123 116 116 111 112 111 94 47 26 23 28 12 75 52 45 56 46 54 34 27 28 53 52 48 43 22 16 0 358 7 2 32
133 125 127 112 96 63 65 62 70 67 76 155 103 58 46 59 56 60 59 56 51 51 27 26 25 4 347 339 337 337 354 77
132 134 125 118 112 83 103 114 113 155 84 70 45 54 67 81 71 65 70 61 49 33 36 9 13 353 332 326 334 333 342 85
119 116 122 117 106 117 129 122 135 115 82 76 72 68 64 73 68 58 55 67 60 48 32 34 20 351 324 314 314 307 242 46
120 134 141 133 133 144 148 159 128 108 80 62 56 51 50 55 63 50 44 49 67 62 36 1 358 358 318 326 306 218 154 52
133 136 142 142 153 139 93 137 98 90 76 64 57 61 60 67 58 40 19 348 42 35 10 350 354 22 341 302 306 279 270 296
129 139 138 125 107 108 98 97 115 123 84 81 93 140 141 131 289 311 310 316 75 46 16 2 350 19 23 333 311 296 320 280
116 109 87 64 39 72 78 62 89 67 99 148 3 354 347 327 316 301 7 67 82 74 49 32 4 348 327 333 308 312 307 299
93 82 77 75 75 72 71 72 81 110 163 340 348 342 314 292 296 345 120 125 115 86 65 35 30 360 337 316 310 309 294 304
101 91 77 70 68 63 66 70 60 27 5 342 333 326 326 314 266 198 164 136 97 95 127 146 139 134 284 304 313 315 311 300
94 91 83 76 72 66 64 62 43 12 354 335 326 322 318 314 240 185 150 125 172 267 249 227 209 242 257 301 289 291 289 292
103 95 90 85 84 76 66 53 39 12 351 334 320 314 308 307 231 161 143 47 23 325 266 266 261 264 273 270 289 290 291 297